Total_Precipitation_Accumulation
1.75 1.66 1.56 1.34 1.21 1.09 0.98 1.00 1.12 1.05 0.99 0.92 0.76 0.65 0.63 0.60 0.55 0.50 0.50 0.55 0.62 0.86 1.12 1.29 1.33 1.39 1.44 1.40 1.33 1.25 1.13 1.06 1.03 1.00 0.99 0.99 1.01 0.96 0.95 0.91 0.87 0.86 0.87
1.89 1.85 1.71 1.50 1.33 1.19 1.07 0.99 1.05 1.13 1.10 1.06 0.98 0.85 0.77 0.70 0.61 0.56 0.50 0.53 0.59 0.69 0.94 1.14 1.28 1.44 1.65 1.69 1.60 1.46 1.29 1.16 1.11 1.08 1.09 1.09 1.08 1.05 1.07 1.02 0.97 0.98 0.98
2.01 2.00 1.88 1.64 1.48 1.43 1.31 1.22 1.21 1.23 1.17 1.05 0.97 0.96 0.91 0.79 0.70 0.65 0.58 0.55 0.55 0.61 0.79 1.03 1.17 1.36 1.59 1.76 1.82 1.75 1.54 1.31 1.20 1.16 1.15 1.18 1.23 1.19 1.23 1.27 1.14 1.07 1.08
2.17 2.19 2.07 1.83 1.79 1.85 1.70 1.51 1.42 1.34 1.20 1.11 1.02 1.01 0.98 0.92 0.77 0.70 0.66 0.61 0.58 0.60 0.74 0.99 1.12 1.24 1.39 1.58 1.78 1.88 1.81 1.62 1.46 1.32 1.24 1.24 1.24 1.32 1.33 1.37 1.37 1.27 1.27
2.21 2.21 2.18 2.07 2.07 2.09 2.01 1.81 1.69 1.60 1.40 1.27 1.19 1.18 1.17 1.13 1.04 0.89 0.78 0.77 0.74 0.73 0.87 1.09 1.18 1.19 1.21 1.35 1.56 1.75 1.82 1.74 1.58 1.43 1.35 1.33 1.28 1.34 1.43 1.39 1.37 1.37 1.35
2.20 2.18 2.13 2.22 2.27 2.25 2.20 2.12 1.94 1.84 1.72 1.60 1.52 1.40 1.39 1.35 1.23 1.04 0.92 0.89 0.88 0.89 1.00 1.08 1.10 1.18 1.20 1.13 1.23 1.50 1.73 1.80 1.68 1.54 1.44 1.37 1.36 1.38 1.51 1.52 1.48 1.48 1.46
2.49 2.38 2.19 2.24 2.36 2.25 2.14 2.23 2.26 2.22 2.10 1.95 1.88 1.71 1.60 1.49 1.37 1.15 0.98 0.94 0.95 0.98 1.02 1.07 1.09 1.00 0.90 0.87 0.96 1.15 1.45 1.72 1.80 1.73 1.55 1.43 1.42 1.49 1.60 1.74 1.71 1.67 1.67
2.57 2.57 2.53 2.43 2.51 2.47 2.35 2.29 2.33 2.39 2.28 2.23 2.18 2.10 1.90 1.76 1.49 1.25 1.10 1.01 0.99 1.03 1.05 1.04 1.01 0.98 0.86 0.79 0.81 0.94 1.19 1.54 1.78 1.87 1.75 1.62 1.54 1.61 1.74 1.97 2.05 1.94 1.91
2.68 2.59 2.62 2.61 2.60 2.63 2.53 2.42 2.35 2.37 2.38 2.29 2.22 2.34 2.08 1.74 1.50 1.35 1.18 1.08 1.05 1.05 1.08 1.10 1.05 1.00 0.94 0.86 0.83 0.89 0.99 1.21 1.59 1.95 2.11 2.03 1.92 1.86 1.92 2.09 2.30 2.26 2.14
2.67 2.66 2.61 2.60 2.63 2.61 2.55 2.58 2.58 2.43 2.42 2.42 2.33 2.16 1.95 1.68 1.60 1.48 1.34 1.25 1.16 1.10 1.11 1.14 1.10 1.02 1.00 0.96 0.95 1.00 1.05 1.10 1.38 1.83 2.26 2.42 2.33 2.23 2.28 2.40 2.60 2.67 2.44
2.60 2.53 2.55 2.53 2.52 2.55 2.55 2.58 2.62 2.64 2.54 2.44 2.35 2.26 2.13 1.87 1.67 1.64 1.52 1.44 1.42 1.29 1.19 1.17 1.16 1.14 1.09 1.05 1.02 1.08 1.17 1.20 1.38 1.67 2.08 2.43 2.60 2.62 2.64 2.68 2.77 2.89 2.77
2.70 2.51 2.46 2.42 2.40 2.42 2.44 2.50 2.57 2.66 2.60 2.45 2.32 2.16 2.10 1.99 1.81 1.76 1.62 1.46 1.50 1.43 1.33 1.27 1.22 1.22 1.25 1.26 1.25 1.36 1.30 1.36 1.50 1.66 1.98 2.34 2.59 2.69 2.82 2.94 2.99 2.98 2.97
2.77 2.55 2.47 2.44 2.39 2.32 2.38 2.55 2.64 2.64 2.62 2.52 2.42 2.30 2.16 1.99 1.89 1.93 1.90 1.69 1.57 1.46 1.43 1.40 1.34 1.30 1.33 1.40 1.45 1.58 1.45 1.46 1.53 1.68 1.97 2.30 2.45 2.58 2.67 2.77 2.97 3.02 3.01
2.75 2.66 2.59 2.54 2.49 2.43 2.38 2.43 2.48 2.51 2.53 2.47 2.37 2.28 2.18 2.04 2.01 2.01 2.03 2.12 2.03 1.73 1.58 1.49 1.38 1.39 1.48 1.53 1.66 1.75 1.52 1.61 1.53 1.55 1.74 1.97 2.04 2.11 2.28 2.51 2.76 2.92 2.96
2.49 2.61 2.62 2.55 2.46 2.41 2.39 2.38 2.34 2.28 2.32 2.34 2.28 2.18 2.08 1.93 1.94 1.97 1.97 2.08 2.28 2.12 1.70 1.41 1.36 1.36 1.40 1.45 1.63 1.56 1.45 1.65 1.60 1.51 1.53 1.59 1.61 1.63 1.69 1.87 2.12 2.34 2.49
2.06 2.24 2.41 2.45 2.40 2.34 2.30 2.32 2.28 2.17 2.17 2.10 2.05 2.06 2.00 1.86 1.78 1.81 1.90 1.97 2.06 2.16 1.88 1.34 1.20 1.24 1.34 1.38 1.55 1.41 1.37 1.61 1.55 1.47 1.42 1.40 1.41 1.41 1.44 1.52 1.65 1.84 1.98
1.79 1.89 2.03 2.17 2.20 2.20 2.19 2.19 2.13 2.07 2.05 2.00 1.94 1.89 1.84 1.79 1.81 1.77 1.78 1.86 1.95 2.03 1.98 1.48 1.24 1.25 1.39 1.44 1.46 1.36 1.30 1.33 1.36 1.50 1.40 1.33 1.29 1.27 1.30 1.36 1.43 1.53 1.63
1.58 1.60 1.69 1.79 1.87 1.89 1.90 1.92 1.91 1.88 1.86 1.85 1.81 1.80 1.76 1.73 1.72 1.71 1.76 1.78 1.82 1.87 1.91 1.70 1.39 1.30 1.33 1.33 1.32 1.32 1.27 1.23 1.21 1.43 1.41 1.35 1.30 1.25 1.24 1.25 1.31 1.38 1.43
1.58 1.48 1.47 1.54 1.58 1.62 1.65 1.64 1.63 1.65 1.65 1.63 1.65 1.68 1.67 1.72 1.77 1.71 1.68 1.66 1.62 1.63 1.70 1.71 1.49 1.28 1.24 1.23 1.28 1.28 1.24 1.19 1.12 1.23 1.33 1.39 1.38 1.35 1.33 1.29 1.30 1.32 1.32
1.46 1.49 1.38 1.33 1.37 1.43 1.49 1.54 1.55 1.54 1.56 1.58 1.58 1.59 1.59 1.63 1.63 1.64 1.68 1.66 1.61 1.61 1.61 1.66 1.58 1.45 1.37 1.31 1.36 1.39 1.36 1.25 1.19 1.13 1.24 1.30 1.42 1.43 1.34 1.23 1.15 1.18 1.23
1.29 1.38 1.38 1.32 1.25 1.30 1.38 1.45 1.50 1.52 1.52 1.54 1.55 1.54 1.57 1.67 1.72 1.69 1.67 1.65 1.70 1.81 1.82 1.83 1.72 1.54 1.41 1.37 1.34 1.25 1.30 1.29 1.29 1.25 1.21 1.17 1.16 1.16 1.19 1.21 1.17 1.15 1.22
1.18 1.30 1.36 1.38 1.36 1.37 1.61 1.61 1.53 1.53 1.55 1.53 1.50 1.45 1.45 1.53 1.53 1.60 1.63 1.61 1.71 1.87 1.99 1.99 1.79 1.50 1.26 1.16 1.14 1.20 1.33 1.44 1.41 1.14 1.09 1.16 1.13 1.16 1.13 1.13 1.28 1.23 1.21
1.22 1.31 1.40 1.45 1.46 1.53 1.69 1.61 1.60 1.47 1.46 1.46 1.42 1.37 1.33 1.31 1.36 1.26 1.36 1.44 1.47 1.60 1.70 1.64 1.56 1.29 1.15 1.12 1.29 1.42 1.38 1.37 1.21 1.05 1.15 1.27 1.20 1.20 1.12 1.15 1.29 1.21 1.20
1.42 1.48 1.54 1.56 1.57 1.60 1.65 1.57 1.59 1.40 1.32 1.28 1.21 1.15 1.12 1.08 1.10 1.18 1.24 1.32 1.24 1.20 1.23 1.21 1.18 1.12 1.10 1.18 1.40 1.62 1.65 1.62 1.36 1.17 1.17 1.31 1.15 1.12 1.10 1.14 1.24 1.18 1.20
1.54 1.49 1.48 1.48 1.46 1.44 1.46 1.42 1.41 1.25 1.19 1.12 1.05 1.00 1.00 0.96 1.11 1.29 1.30 1.33 1.15 1.04 1.10 1.20 1.28 1.31 1.42 1.49 1.55 1.82 1.99 2.07 1.84 1.36 1.13 1.19 1.07 1.03 1.08 1.11 1.13 1.18 1.17
1.31 1.25 1.21 1.17 1.14 1.12 1.18 1.20 1.22 1.17 1.12 1.00 0.94 0.92 1.03 1.02 1.18 1.32 1.26 1.27 1.22 1.02 1.00 1.08 1.14 1.19 1.19 1.29 1.47 1.52 1.71 2.05 1.89 1.53 1.07 1.13 1.15 1.24 1.51 1.18 1.04 1.04 1.07